Weather History for KGWB - November, 2013

Change the Weather History Date:

Sunday, November 24, 2013

  Actual Average (KFWA) Record (KFWA)
Temperature  
Mean Temperature 20 °F 38 °F  
Max Temperature 26 °F 45 °F 63 °F (1973)
Min Temperature 15 °F 30 °F -1 °F (1950)
Degree Days  
Heating Degree Days 44 27  
Month to date heating degree days 534  
Since 1 July heating degree days 1043  
Cooling Degree Days 0 0  
Month to date cooling degree days 0  
Year to date cooling degree days 809  
Moisture  
Dew Point 13 °F    
Average Humidity 70    
Maximum Humidity 86    
Minimum Humidity 55    
Precipitation  
Precipitation 0.00 in 0.11 in 0.83 in (1908)
Month to date precipitation 2.45  
Year to date precipitation 34.93  
Snow  
Snow 0.00 in 0.10 in 1.60 in (1975)
Month to date snowfall 1.1  
Since 1 July snowfall 1.4  
Since 1 September snowfall 1.4  
Snow Depth -    
Sea Level Pressure  
Sea Level Pressure 30.56 in    
Wind  
Wind Speed 5 mph (West)    
Max Wind Speed 13 mph    
Max Gust Speed 18 mph    
Visibility 10 miles    
Events Snow    
T = Trace of Precipitation, MM = Missing Value Source: NWS Daily Summary

Daily Weather History Graph

Daily Weather History Graph

Search for Another Location

Airport or City:

Trip Planner

Search our weather history database for the weather conditions in past years. The results will help you decide how hot, cold, wet, or windy it might be!

Date:

Astronomy

Nov. 24, 2013 Rise Set
Actual Time 7:39 AM EST 5:14 PM EST
Civil Twilight 7:08 AM EST 5:44 PM EST
Nautical Twilight 6:35 AM EST 6:18 PM EST
Astronomical Twilight 6:01 AM EST 6:51 PM EST
Moon 11:41 PM EST (11/24) 12:24 PM EST (11/24)
Length of Visible Light 10h 35m
Length of Day
9h 35m
Waning Gibbous, 61% of the Moon is Illuminated
Nov 24
Waning Gibbous
Nov 25
Last Quarter
Dec 2
New
Dec 9
First Quarter
Dec 17
Full

Hourly Weather History & Observations

Time (EST) Temp. Windchill Dew Point Humidity Pressure Visibility Wind Dir Wind Speed Gust Speed Precip Events Conditions
12:15 AM 17.6 °F 10.7 °F 8.6 °F 68% 30.57 in 10.0 mi West 4.6 mph - N/A   Clear
12:35 AM 17.6 °F 10.7 °F 10.4 °F 73% 30.57 in 10.0 mi West 4.6 mph - N/A   Scattered Clouds
12:55 AM 17.6 °F 10.7 °F 10.4 °F 73% 30.57 in 10.0 mi West 4.6 mph - N/A   Mostly Cloudy
1:15 AM 19.4 °F 11.5 °F 12.2 °F 74% 30.57 in 10.0 mi West 5.8 mph - N/A   Overcast
1:35 AM 19.4 °F 11.5 °F 12.2 °F 74% 30.56 in 10.0 mi WNW 5.8 mph - N/A   Overcast
1:55 AM 19.4 °F 12.8 °F 12.2 °F 74% 30.56 in 10.0 mi NW 4.6 mph - N/A   Overcast
2:15 AM 19.4 °F 11.5 °F 10.4 °F 68% 30.56 in 10.0 mi WNW 5.8 mph - N/A   Overcast
2:35 AM 19.4 °F 11.5 °F 10.4 °F 68% 30.57 in 10.0 mi WNW 5.8 mph - N/A   Mostly Cloudy
2:55 AM 19.4 °F 11.5 °F 10.4 °F 68% 30.56 in 10.0 mi NW 5.8 mph - N/A   Mostly Cloudy
3:15 AM 17.6 °F 8.2 °F 10.4 °F 73% 30.57 in 10.0 mi NW 6.9 mph - N/A   Scattered Clouds
3:35 AM 19.4 °F 11.5 °F 10.4 °F 68% 30.57 in 10.0 mi NW 5.8 mph - N/A   Mostly Cloudy
3:55 AM 17.6 °F 9.3 °F 10.4 °F 73% 30.57 in 10.0 mi NW 5.8 mph - N/A   Mostly Cloudy
4:15 AM 19.4 °F 11.5 °F 10.4 °F 68% 30.58 in 10.0 mi West 5.8 mph - N/A   Mostly Cloudy
4:35 AM 17.6 °F 10.7 °F 10.4 °F 73% 30.58 in 10.0 mi WNW 4.6 mph - N/A   Scattered Clouds
4:55 AM 17.6 °F 12.3 °F 12.2 °F 79% 30.58 in 10.0 mi NW 3.5 mph - N/A   Scattered Clouds
5:15 AM 19.4 °F 11.5 °F 12.2 °F 74% 30.58 in 10.0 mi WNW 5.8 mph - N/A   Overcast
5:35 AM 19.4 °F 12.8 °F 12.2 °F 74% 30.58 in 10.0 mi NW 4.6 mph - N/A   Overcast
5:55 AM 17.6 °F 12.3 °F 10.4 °F 73% 30.58 in 10.0 mi WNW 3.5 mph - N/A   Mostly Cloudy
6:15 AM 17.6 °F 12.3 °F 10.4 °F 73% 30.58 in 10.0 mi West 3.5 mph - N/A   Scattered Clouds
6:35 AM 15.8 °F - 10.4 °F 79% 30.58 in 10.0 mi Calm Calm - N/A   Clear
6:55 AM 15.8 °F 10.2 °F 12.2 °F 86% 30.58 in 10.0 mi WSW 3.5 mph - N/A   Scattered Clouds
7:15 AM 17.6 °F 12.3 °F 12.2 °F 79% 30.59 in 10.0 mi West 3.5 mph - N/A   Mostly Cloudy
7:35 AM 17.6 °F 12.3 °F 12.2 °F 79% 30.59 in 10.0 mi West 3.5 mph - N/A   Overcast
7:55 AM 17.6 °F 12.3 °F 12.2 °F 79% 30.60 in 10.0 mi West 3.5 mph - N/A   Overcast
8:15 AM 17.6 °F 12.3 °F 12.2 °F 79% 30.61 in 10.0 mi West 3.5 mph - N/A   Overcast
8:35 AM 19.4 °F 12.8 °F 12.2 °F 74% 30.62 in 10.0 mi WSW 4.6 mph - N/A   Overcast
8:55 AM 19.4 °F 12.8 °F 14.0 °F 80% 30.61 in 10.0 mi WSW 4.6 mph - N/A   Mostly Cloudy
9:15 AM 21.2 °F 13.6 °F 12.2 °F 68% 30.62 in 10.0 mi SW 5.8 mph - N/A   Scattered Clouds
9:35 AM 21.2 °F 13.6 °F 12.2 °F 68% 30.64 in 10.0 mi West 5.8 mph - N/A   Overcast
9:55 AM 21.2 °F 16.4 °F 12.2 °F 68% 30.63 in 10.0 mi WSW 3.5 mph - N/A   Overcast
10:15 AM 21.2 °F 11.7 °F 14.0 °F 74% 30.64 in 10.0 mi West 8.1 mph - N/A   Overcast
10:35 AM 23.0 °F 14.7 °F 14.0 °F 68% 30.64 in 10.0 mi West 6.9 mph - N/A   Overcast
10:55 AM 23.0 °F 17.0 °F 14.0 °F 68% 30.64 in 5.0 mi WSW 4.6 mph - N/A Snow Light Snow
11:15 AM 23.0 °F 14.7 °F 15.8 °F 74% 30.63 in 7.0 mi West 6.9 mph - N/A Snow Light Snow
11:35 AM 24.8 °F 16.9 °F 15.8 °F 69% 30.62 in 10.0 mi West 6.9 mph - N/A Snow Light Snow
11:55 AM 24.8 °F 17.9 °F 15.8 °F 69% 30.61 in 7.0 mi West 5.8 mph - N/A Snow Light Snow
12:15 PM 24.8 °F 16.1 °F 14.0 °F 64% 30.60 in 10.0 mi WNW 8.1 mph - N/A   Overcast
12:35 PM 26.6 °F 18.2 °F 14.0 °F 59% 30.60 in 10.0 mi WSW 8.1 mph - N/A   Overcast
12:55 PM 24.8 °F 14.6 °F 14.0 °F 64% 30.59 in 10.0 mi West 10.4 mph - N/A Snow Light Snow
1:15 PM 26.6 °F 16.8 °F 14.0 °F 59% 30.58 in 7.0 mi West 10.4 mph - N/A Snow Light Snow
1:35 PM 26.6 °F 15.7 °F 14.0 °F 59% 30.58 in 10.0 mi West 12.7 mph - N/A   Overcast
1:55 PM 26.6 °F 17.5 °F 12.2 °F 55% 30.57 in 7.0 mi WNW 9.2 mph 18.4 mph N/A   Overcast
2:15 PM 26.6 °F 16.2 °F 14.0 °F 59% 30.56 in 10.0 mi West 11.5 mph - N/A   Overcast
2:35 PM 26.6 °F 17.5 °F 14.0 °F 59% 30.56 in 10.0 mi West 9.2 mph - N/A Snow Light Snow
2:55 PM 26.6 °F 16.8 °F 14.0 °F 59% 30.55 in 5.0 mi West 10.4 mph 16.1 mph N/A Snow Light Snow
3:15 PM 26.6 °F 16.8 °F 14.0 °F 59% 30.55 in 10.0 mi West 10.4 mph - N/A   Overcast
3:35 PM 26.6 °F 17.5 °F 15.8 °F 64% 30.55 in 10.0 mi WSW 9.2 mph - N/A Snow Light Snow
3:55 PM 26.6 °F 19.1 °F 17.6 °F 69% 30.55 in 10.0 mi West 6.9 mph - N/A   Overcast
4:15 PM 26.6 °F 17.5 °F 15.8 °F 64% 30.55 in 5.0 mi West 9.2 mph - N/A Snow Light Snow
4:35 PM 26.6 °F 20.0 °F 14.0 °F 59% 30.55 in 10.0 mi West 5.8 mph - N/A   Mostly Cloudy
4:55 PM 24.8 °F 17.9 °F 14.0 °F 64% 30.55 in 10.0 mi West 5.8 mph - N/A   Scattered Clouds
5:15 PM 23.0 °F 18.4 °F 15.8 °F 74% 30.54 in 10.0 mi WSW 3.5 mph - N/A   Clear
5:35 PM 23.0 °F 18.4 °F 14.0 °F 68% 30.54 in 10.0 mi WSW 3.5 mph - N/A Snow Light Snow
5:55 PM 23.0 °F - 14.0 °F 68% 30.53 in 10.0 mi Calm Calm - N/A   Scattered Clouds
6:15 PM 23.0 °F 18.4 °F 14.0 °F 68% 30.53 in 10.0 mi SW 3.5 mph - N/A   Clear
6:35 PM 21.2 °F - 14.0 °F 74% 30.53 in 10.0 mi Calm Calm - N/A   Clear
6:55 PM 21.2 °F 16.4 °F 14.0 °F 74% 30.52 in 10.0 mi SSW 3.5 mph - N/A   Clear
7:15 PM 21.2 °F 16.4 °F 14.0 °F 74% 30.52 in 10.0 mi SSW 3.5 mph - N/A   Clear
7:35 PM 21.2 °F - 14.0 °F 74% 30.51 in 10.0 mi Calm Calm - N/A   Clear
7:55 PM 19.4 °F 14.3 °F 14.0 °F 80% 30.50 in 10.0 mi SSW 3.5 mph - N/A   Clear
8:15 PM 19.4 °F - 14.0 °F 80% 30.50 in 10.0 mi Calm Calm - N/A   Clear
8:35 PM 19.4 °F - 14.0 °F 80% 30.49 in 10.0 mi Calm Calm - N/A   Clear
8:55 PM 17.6 °F - 14.0 °F 86% 30.49 in 10.0 mi Calm Calm - N/A   Clear
9:15 PM 19.4 °F - 12.2 °F 74% 30.48 in 10.0 mi Calm Calm - N/A   Clear
9:35 PM 19.4 °F 14.3 °F 12.2 °F 74% 30.47 in 10.0 mi SSW 3.5 mph - N/A   Clear
9:55 PM 19.4 °F 14.3 °F 12.2 °F 74% 30.47 in 10.0 mi SSW 3.5 mph - N/A   Clear
10:15 PM 21.2 °F 14.9 °F 12.2 °F 68% 30.46 in 10.0 mi SW 4.6 mph - N/A   Clear
10:35 PM 21.2 °F 16.4 °F 10.4 °F 63% 30.46 in 10.0 mi SW 3.5 mph - N/A   Clear
10:55 PM 21.2 °F 16.4 °F 10.4 °F 63% 30.47 in 10.0 mi SW 3.5 mph - N/A   Clear
11:15 PM 21.2 °F 14.9 °F 10.4 °F 63% 30.46 in 10.0 mi SW 4.6 mph - N/A   Clear
11:35 PM 19.4 °F 14.3 °F 10.4 °F 68% 30.45 in 10.0 mi SW 3.5 mph - N/A   Clear
11:55 PM 19.4 °F 12.8 °F 10.4 °F 68% 30.45 in 10.0 mi SSW 4.6 mph - N/A   Clear